MFX441 UZTT-UWKD

Flight info

Callsign MFX441
Flight time N/A
Altitude 36000
Route MIKN2A MIKNO L163 INKUM M199 ODILA M875 MULTA M162 PODUT T750 MOF T793 TONSI TONS1R
Aircraft A320/M-SDE3FGHIRWY/LB1

Departure

Time 2026-04-16 14:41
Airport Tashkent International Airport (UZTT)

Arrival

Time N/A
Airport Kazan International Airport (UWKD)
Time Latitude Longitude Altitude Speed Heading
2026-04-16 14:11 41.26307 69.27271 1424 ft 0 kts 351°
2026-04-16 14:34 41.26318 69.27268 1424 ft 0 kts 352°
2026-04-16 14:35 41.26338 69.27228 1424 ft 9 kts 268°
2026-04-16 14:35 41.26321 69.27169 1424 ft 6 kts 207°
2026-04-16 14:35 41.26270 69.27171 1424 ft 8 kts 171°
2026-04-16 14:36 41.26205 69.27183 1424 ft 9 kts 173°
2026-04-16 14:36 41.26138 69.27194 1424 ft 9 kts 173°
2026-04-16 14:36 41.26078 69.27220 1424 ft 8 kts 155°
2026-04-16 14:36 41.26031 69.27184 1424 ft 8 kts 244°
2026-04-16 14:37 41.26006 69.27110 1424 ft 8 kts 245°
2026-04-16 14:37 41.25980 69.27035 1424 ft 8 kts 245°
2026-04-16 14:37 41.25954 69.26960 1424 ft 9 kts 245°
2026-04-16 14:37 41.25927 69.26884 1424 ft 9 kts 247°
2026-04-16 14:38 41.25899 69.26809 1424 ft 9 kts 236°
2026-04-16 14:38 41.25869 69.26736 1424 ft 9 kts 246°
2026-04-16 14:38 41.25843 69.26659 1424 ft 9 kts 246°
2026-04-16 14:38 41.25817 69.26582 1424 ft 9 kts 245°
2026-04-16 14:39 41.25790 69.26503 1424 ft 9 kts 245°
2026-04-16 14:39 41.25760 69.26426 1424 ft 9 kts 226°
2026-04-16 14:39 41.25703 69.26399 1424 ft 8 kts 169°
2026-04-16 14:39 41.25665 69.26453 1424 ft 8 kts 98°
2026-04-16 14:40 41.25668 69.26498 1424 ft 0 kts 81°
2026-04-16 14:40 41.25687 69.26671 1424 ft 51 kts 83°
2026-04-16 14:40 41.25774 69.27462 1425 ft 119 kts 81°
2026-04-16 14:41 41.25932 69.28837 1466 ft 171 kts 83°
2026-04-16 14:41 41.26110 69.30391 2112 ft 173 kts 84°
2026-04-16 14:41 41.26281 69.31991 2764 ft 180 kts 84°
2026-04-16 14:41 41.26464 69.33662 3267 ft 191 kts 84°
2026-04-16 14:42 41.26666 69.35519 3570 ft 208 kts 84°
2026-04-16 14:42 41.26651 69.37508 3874 ft 220 kts 111°
2026-04-16 14:42 41.25711 69.39120 4108 ft 231 kts 155°
2026-04-16 14:42 41.24136 69.39548 4482 ft 239 kts 190°
2026-04-16 14:43 41.22565 69.38735 4872 ft 253 kts 218°
2026-04-16 14:43 41.21337 69.37007 5494 ft 259 kts 231°
2026-04-16 14:43 41.20183 69.35205 6281 ft 261 kts 231°
2026-04-16 14:43 41.18994 69.33388 7068 ft 262 kts 231°
2026-04-16 14:44 41.17813 69.31576 7909 ft 260 kts 231°
2026-04-16 14:44 41.16659 69.29800 8757 ft 257 kts 231°
2026-04-16 14:44 41.15734 69.27816 9529 ft 254 kts 252°
2026-04-16 14:44 41.15584 69.25507 10301 ft 258 kts 272°
2026-04-16 14:45 41.16158 69.23196 10723 ft 279 kts 294°
2026-04-16 14:45 41.17280 69.20999 11003 ft 296 kts 297°
2026-04-16 14:45 41.18475 69.18707 11287 ft 310 kts 298°
2026-04-16 14:45 41.19710 69.16326 11791 ft 315 kts 297°
2026-04-16 14:46 41.20964 69.13912 12373 ft 318 kts 297°
2026-04-16 14:46 41.22225 69.11478 12925 ft 321 kts 298°
2026-04-16 14:46 41.23624 69.09124 13455 ft 329 kts 304°
2026-04-16 14:46 41.24191 69.08306 13640 ft 332 kts 307°
2026-04-16 14:47 41.25055 69.07180 13904 ft 336 kts 310°
2026-04-16 14:47 41.26840 69.05140 14430 ft 341 kts 313°
2026-04-16 14:47 41.28695 69.03111 14961 ft 343 kts 313°
2026-04-16 14:47 41.30545 69.01098 15489 ft 345 kts 313°
2026-04-16 14:48 41.32421 68.99052 15984 ft 347 kts 312°
2026-04-16 14:48 41.34301 68.96994 16464 ft 350 kts 312°
2026-04-16 14:48 41.36183 68.94927 16934 ft 352 kts 312°
2026-04-16 14:48 41.38072 68.92853 17403 ft 354 kts 312°
2026-04-16 14:49 41.39970 68.90764 17878 ft 356 kts 312°
2026-04-16 14:49 41.41882 68.88658 18316 ft 358 kts 312°
2026-04-16 14:49 41.43809 68.86531 18736 ft 361 kts 311°
2026-04-16 14:49 41.45743 68.84396 19201 ft 363 kts 312°
2026-04-16 14:50 41.47686 68.82250 19649 ft 364 kts 311°
2026-04-16 14:50 41.49649 68.80079 20049 ft 367 kts 311°
2026-04-16 14:50 41.51599 68.77921 20468 ft 369 kts 311°
2026-04-16 14:50 41.53582 68.75727 20898 ft 371 kts 311°
2026-04-16 14:51 41.55583 68.73506 21296 ft 373 kts 311°
2026-04-16 14:51 41.57582 68.71290 21693 ft 375 kts 311°
2026-04-16 14:51 41.59600 68.69048 22089 ft 377 kts 311°
2026-04-16 14:51 41.61596 68.66832 22455 ft 379 kts 311°
2026-04-16 14:53 41.75954 68.50820 25004 ft 389 kts 311°
2026-04-16 14:53 41.78042 68.48486 25320 ft 391 kts 311°
2026-04-16 14:54 41.80117 68.46161 25637 ft 392 kts 311°
2026-04-16 14:54 41.82207 68.43819 25916 ft 395 kts 311°
2026-04-16 14:54 41.84318 68.41449 26202 ft 397 kts 311°
2026-04-16 14:54 41.86437 68.39069 26499 ft 398 kts 311°
2026-04-16 14:55 41.88559 68.36683 26785 ft 400 kts 311°
2026-04-16 14:55 41.90713 68.34258 27084 ft 402 kts 310°
2026-04-16 14:55 41.92878 68.31822 27409 ft 403 kts 310°
2026-04-16 14:55 41.95002 68.29427 27701 ft 404 kts 310°
2026-04-16 14:56 41.97169 68.26980 27976 ft 406 kts 310°
2026-04-16 14:56 41.99360 68.24506 28288 ft 407 kts 310°
2026-04-16 14:56 42.01505 68.22072 28545 ft 408 kts 309°
2026-04-16 14:56 42.03590 68.19504 28815 ft 405 kts 306°
2026-04-16 14:57 42.05496 68.16891 29063 ft 404 kts 304°
2026-04-16 14:57 42.07424 68.14119 29313 ft 405 kts 303°
2026-04-16 14:57 42.09361 68.11314 29560 ft 406 kts 303°
2026-04-16 14:57 42.11271 68.08540 29785 ft 408 kts 303°
2026-04-16 14:58 42.13206 68.05737 30021 ft 409 kts 303°
2026-04-16 14:58 42.17100 68.00084 30468 ft 410 kts 303°
2026-04-16 14:58 42.19042 67.97266 30712 ft 410 kts 303°
2026-04-16 14:59 42.20986 67.94442 30990 ft 409 kts 303°
2026-04-16 14:59 42.22922 67.91626 31275 ft 408 kts 303°
2026-04-16 14:59 42.24844 67.88842 31602 ft 405 kts 304°
2026-04-16 14:59 42.26760 67.86053 31889 ft 403 kts 304°
2026-04-16 15:00 42.28670 67.83263 32121 ft 403 kts 303°
2026-04-16 15:00 42.30559 67.80497 32307 ft 403 kts 303°
2026-04-16 15:00 42.32468 67.77700 32530 ft 403 kts 303°
2026-04-16 15:00 42.34347 67.74948 32771 ft 402 kts 303°
2026-04-16 15:01 42.36246 67.72164 32974 ft 401 kts 304°
2026-04-16 15:01 42.38139 67.69385 33186 ft 401 kts 304°
2026-04-16 15:01 42.40026 67.66617 33414 ft 400 kts 304°
2026-04-16 15:01 42.41904 67.63857 33615 ft 399 kts 304°
2026-04-16 15:02 42.43765 67.61121 33807 ft 398 kts 304°
2026-04-16 15:02 42.45628 67.58381 34006 ft 398 kts 304°
2026-04-16 15:02 42.47499 67.55624 34180 ft 397 kts 304°
2026-04-16 15:02 42.49374 67.52860 34326 ft 397 kts 304°
2026-04-16 15:03 42.51241 67.50108 34451 ft 397 kts 304°
2026-04-16 15:03 42.53086 67.47379 34578 ft 398 kts 304°
2026-04-16 15:03 42.54952 67.44621 34688 ft 398 kts 304°
2026-04-16 15:04 42.58698 67.39075 34848 ft 400 kts 304°
2026-04-16 15:04 42.62469 67.33488 35035 ft 401 kts 304°
2026-04-16 15:05 42.66233 67.27899 35252 ft 401 kts 304°
2026-04-16 15:05 42.69973 67.22337 35417 ft 403 kts 304°
2026-04-16 15:06 42.73771 67.16678 35557 ft 404 kts 304°
2026-04-16 15:06 42.77535 67.11053 35709 ft 405 kts 304°
2026-04-16 15:07 42.81339 67.05361 35860 ft 406 kts 304°
2026-04-16 15:07 42.85144 66.99657 35978 ft 408 kts 305°
2026-04-16 15:08 42.88946 66.93951 35983 ft 409 kts 305°
2026-04-16 15:08 42.92750 66.88226 35975 ft 408 kts 305°
2026-04-16 15:09 42.96550 66.82495 35974 ft 408 kts 305°
2026-04-16 15:09 43.00363 66.76732 35964 ft 408 kts 305°
2026-04-16 15:10 43.04141 66.71005 35960 ft 408 kts 305°
2026-04-16 15:10 43.07941 66.65228 35946 ft 409 kts 305°
2026-04-16 15:11 43.11743 66.59441 35947 ft 409 kts 305°
2026-04-16 15:11 43.15571 66.53602 35948 ft 410 kts 305°
2026-04-16 15:12 43.19356 66.47812 35958 ft 412 kts 305°
2026-04-16 15:12 43.23177 66.41961 35942 ft 412 kts 305°
2026-04-16 15:13 43.26988 66.36119 35933 ft 412 kts 305°
2026-04-16 15:13 43.30833 66.30207 35935 ft 412 kts 305°
2026-04-16 15:14 43.34641 66.24345 35952 ft 412 kts 305°
2026-04-16 15:14 43.38435 66.18488 35920 ft 413 kts 305°
2026-04-16 15:15 43.39881 66.16256 35641 ft 412 kts 305°
2026-04-16 15:15 43.41794 66.13301 35792 ft 411 kts 305°
2026-04-16 15:15 43.43684 66.10373 35846 ft 412 kts 305°
2026-04-16 15:16 43.47497 66.04456 35900 ft 416 kts 305°
2026-04-16 15:16 43.51355 65.98460 35884 ft 416 kts 306°
2026-04-16 15:17 43.55167 65.92527 35890 ft 417 kts 305°
2026-04-16 15:17 43.59020 65.86515 35884 ft 416 kts 306°
2026-04-16 15:18 43.62828 65.80558 35875 ft 417 kts 306°
2026-04-16 15:18 43.66610 65.74631 35880 ft 417 kts 306°
2026-04-16 15:19 43.70443 65.68613 35873 ft 419 kts 306°
2026-04-16 15:19 43.74278 65.62578 35869 ft 418 kts 306°
2026-04-16 15:20 43.78104 65.56545 35875 ft 418 kts 306°
2026-04-16 15:20 43.81909 65.50534 35866 ft 418 kts 306°
2026-04-16 15:21 43.85754 65.44442 35863 ft 419 kts 306°
2026-04-16 15:21 43.89582 65.38368 35863 ft 419 kts 306°
2026-04-16 15:22 43.93392 65.32310 35846 ft 418 kts 306°
2026-04-16 15:22 43.97210 65.26221 35855 ft 417 kts 306°
2026-04-16 15:23 44.01000 65.20167 35834 ft 418 kts 306°
2026-04-16 15:23 44.04796 65.14094 35837 ft 419 kts 306°
2026-04-16 15:24 44.08613 65.07967 35838 ft 420 kts 306°
2026-04-16 15:24 44.12427 65.01837 35845 ft 420 kts 306°
2026-04-16 15:25 44.16229 64.95711 35825 ft 420 kts 307°
2026-04-16 15:25 44.20045 64.89548 35834 ft 420 kts 307°
2026-04-16 15:26 44.23838 64.83411 35809 ft 420 kts 307°
2026-04-16 15:26 44.27669 64.77190 35793 ft 421 kts 307°
2026-04-16 15:27 44.31472 64.70996 35800 ft 422 kts 307°
2026-04-16 15:27 44.35270 64.64796 35814 ft 423 kts 307°
2026-04-16 15:28 44.39097 64.58543 35800 ft 424 kts 307°
2026-04-16 15:28 44.42928 64.52286 35810 ft 424 kts 308°
2026-04-16 15:29 44.46746 64.46030 35944 ft 423 kts 308°
2026-04-16 15:29 44.50537 64.39804 35846 ft 422 kts 308°
2026-04-16 15:30 44.54338 64.33544 35821 ft 422 kts 307°
2026-04-16 15:30 44.58131 64.27282 35816 ft 422 kts 307°
2026-04-16 15:31 44.61914 64.21024 35816 ft 423 kts 307°
2026-04-16 15:31 44.65727 64.14700 35816 ft 429 kts 308°
2026-04-16 15:32 44.69608 64.08250 35818 ft 434 kts 308°
2026-04-16 15:32 44.73500 64.01771 35817 ft 438 kts 308°
2026-04-16 15:33 44.77446 63.95183 35819 ft 442 kts 308°
2026-04-16 15:33 44.81415 63.88545 35823 ft 445 kts 308°
2026-04-16 15:34 44.85389 63.81879 35825 ft 447 kts 308°
2026-04-16 15:34 44.89380 63.75170 35830 ft 447 kts 308°
2026-04-16 15:35 44.93342 63.68495 35831 ft 446 kts 309°
2026-04-16 15:35 44.97320 63.61769 35833 ft 447 kts 309°
2026-04-16 15:36 45.01282 63.55057 35837 ft 447 kts 309°
2026-04-16 15:36 45.05251 63.48321 35838 ft 447 kts 309°
2026-04-16 15:37 45.09223 63.41568 35845 ft 447 kts 309°
2026-04-16 15:37 45.13186 63.34811 35850 ft 447 kts 308°
2026-04-16 15:38 45.17151 63.28032 35855 ft 447 kts 308°
2026-04-16 15:38 45.21106 63.21250 35860 ft 447 kts 309°
2026-04-16 15:39 45.25067 63.14444 35871 ft 446 kts 309°
2026-04-16 15:39 45.29004 63.07663 35876 ft 445 kts 309°
2026-04-16 15:40 45.32904 63.00929 35876 ft 445 kts 309°
2026-04-16 15:40 45.36853 62.94096 35881 ft 446 kts 309°
2026-04-16 15:41 45.40781 62.87280 35894 ft 446 kts 309°
2026-04-16 15:41 45.44706 62.80454 35903 ft 446 kts 309°
2026-04-16 15:42 45.48623 62.73624 35908 ft 445 kts 309°
2026-04-16 15:42 45.52510 62.66829 35908 ft 445 kts 310°
2026-04-16 15:43 45.56405 62.60007 35911 ft 445 kts 310°
2026-04-16 15:43 45.60312 62.53146 35919 ft 445 kts 310°
2026-04-16 15:44 45.64196 62.46306 35921 ft 445 kts 310°
2026-04-16 15:44 45.68069 62.39469 35921 ft 445 kts 310°
2026-04-16 15:45 45.71955 62.32591 35928 ft 444 kts 309°
2026-04-16 15:45 45.75820 62.25736 35928 ft 445 kts 309°
2026-04-16 15:46 45.79757 62.18926 35910 ft 444 kts 313°
2026-04-16 15:46 45.84075 62.12669 35933 ft 443 kts 319°
2026-04-16 15:47 45.88846 62.07042 35928 ft 443 kts 324°
2026-04-16 15:47 45.93864 62.01949 35935 ft 443 kts 326°
2026-04-16 15:48 45.98896 61.96911 35944 ft 443 kts 326°
2026-04-16 15:48 46.03957 61.91833 35942 ft 443 kts 326°
2026-04-16 15:49 46.08868 61.86886 35956 ft 442 kts 326°
2026-04-16 15:49 46.13902 61.81801 35955 ft 442 kts 326°
2026-04-16 15:50 46.18927 61.76713 35960 ft 442 kts 326°
2026-04-16 15:50 46.23918 61.71640 35960 ft 442 kts 326°
2026-04-16 15:51 46.28936 61.66518 35968 ft 441 kts 326°
2026-04-16 15:51 46.33931 61.61406 35970 ft 440 kts 326°
2026-04-16 15:52 46.38914 61.56295 35983 ft 441 kts 326°
2026-04-16 15:52 46.43888 61.51178 35981 ft 440 kts 326°
2026-04-16 15:53 46.48900 61.46016 35989 ft 441 kts 326°
2026-04-16 15:53 46.53875 61.40875 35999 ft 440 kts 327°
2026-04-16 15:54 46.58828 61.35750 36011 ft 440 kts 327°
2026-04-16 15:54 46.63793 61.30598 36023 ft 440 kts 326°
2026-04-16 15:55 46.68767 61.25425 36013 ft 440 kts 326°
2026-04-16 15:55 46.73748 61.20233 36019 ft 440 kts 326°
2026-04-16 15:56 46.78699 61.15062 36023 ft 439 kts 326°
2026-04-16 15:56 46.83649 61.09876 36030 ft 439 kts 327°
2026-04-16 15:57 46.88588 61.04694 36022 ft 439 kts 326°
2026-04-16 15:57 46.93527 60.99499 36043 ft 439 kts 327°
2026-04-16 15:58 46.98472 60.94287 36039 ft 439 kts 327°
2026-04-16 15:58 47.03404 60.89073 36044 ft 439 kts 327°
2026-04-16 15:59 47.10812 60.81219 36056 ft 438 kts 327°
2026-04-16 15:59 47.15725 60.75996 36057 ft 437 kts 327°
2026-04-16 16:00 47.20653 60.70747 36055 ft 438 kts 327°
2026-04-16 16:00 47.25555 60.65514 36062 ft 437 kts 327°
2026-04-16 16:01 47.30472 60.60249 36082 ft 437 kts 327°
2026-04-16 16:01 47.35351 60.55010 36072 ft 436 kts 327°
2026-04-16 16:02 47.40259 60.49731 36079 ft 436 kts 327°
2026-04-16 16:02 47.45126 60.44483 36069 ft 436 kts 327°
2026-04-16 16:03 47.50032 60.39183 36082 ft 436 kts 327°
2026-04-16 16:03 47.54894 60.33915 36080 ft 436 kts 326°
2026-04-16 16:04 47.59777 60.28612 36082 ft 435 kts 326°
2026-04-16 16:04 47.64642 60.23316 36092 ft 435 kts 326°
2026-04-16 16:05 47.69490 60.18025 36075 ft 436 kts 326°
2026-04-16 16:05 47.74350 60.12710 36087 ft 436 kts 326°
2026-04-16 16:06 47.79240 60.07353 36083 ft 435 kts 326°
2026-04-16 16:06 47.84086 60.02031 36092 ft 434 kts 326°
2026-04-16 16:07 47.88920 59.96708 36091 ft 434 kts 326°
2026-04-16 16:07 47.93739 59.91385 36093 ft 434 kts 326°
2026-04-16 16:08 47.98602 59.86012 36093 ft 434 kts 326°
2026-04-16 16:08 48.03427 59.80663 36099 ft 434 kts 326°
2026-04-16 16:09 48.08240 59.75312 36101 ft 434 kts 326°
2026-04-16 16:09 48.13076 59.69923 36109 ft 433 kts 326°
2026-04-16 16:10 48.17899 59.64536 36108 ft 434 kts 326°
2026-04-16 16:10 48.22734 59.59123 36117 ft 434 kts 326°
2026-04-16 16:11 48.27532 59.53737 36127 ft 433 kts 326°
2026-04-16 16:11 48.32368 59.48297 36132 ft 434 kts 326°
2026-04-16 16:12 48.37182 59.42867 36136 ft 433 kts 326°
2026-04-16 16:12 48.41970 59.37456 36133 ft 434 kts 326°
2026-04-16 16:13 48.46778 59.32004 36132 ft 434 kts 325°
2026-04-16 16:13 48.51557 59.26576 36137 ft 434 kts 325°
2026-04-16 16:14 48.53946 59.23856 35968 ft 433 kts 324°
2026-04-16 16:14 48.56345 59.21123 36004 ft 433 kts 324°
2026-04-16 16:14 48.61129 59.15661 36084 ft 434 kts 324°
2026-04-16 16:15 48.65942 59.10152 36117 ft 436 kts 324°
2026-04-16 16:15 48.70771 59.04612 36140 ft 437 kts 324°
2026-04-16 16:16 48.75592 58.99066 36140 ft 436 kts 324°
2026-04-16 16:16 48.80438 58.93478 36142 ft 436 kts 324°
2026-04-16 16:17 48.85235 58.87933 36144 ft 436 kts 324°
2026-04-16 16:17 48.90049 58.82354 36143 ft 436 kts 324°
2026-04-16 16:18 48.94867 58.76759 36140 ft 436 kts 324°
2026-04-16 16:18 48.99668 58.71165 36145 ft 436 kts 324°
2026-04-16 16:19 49.04492 58.65531 36156 ft 437 kts 324°
2026-04-16 16:19 49.09287 58.59916 36158 ft 437 kts 324°
2026-04-16 16:20 49.14107 58.54258 36162 ft 437 kts 324°
2026-04-16 16:20 49.18925 58.48587 36168 ft 437 kts 324°
2026-04-16 16:21 49.23698 58.42953 36168 ft 437 kts 324°
2026-04-16 16:21 49.28508 58.37263 36180 ft 436 kts 324°
2026-04-16 16:22 49.33310 58.31569 36190 ft 436 kts 323°
2026-04-16 16:22 49.38094 58.25882 36188 ft 436 kts 323°
2026-04-16 16:23 49.42861 58.20205 36178 ft 436 kts 323°
2026-04-16 16:23 49.47636 58.14503 36179 ft 436 kts 323°
2026-04-16 16:24 49.52419 58.08775 36171 ft 436 kts 323°
2026-04-16 16:24 49.57180 58.03060 36181 ft 435 kts 323°
2026-04-16 16:25 49.61956 57.97312 36179 ft 435 kts 323°
2026-04-16 16:25 49.66716 57.91575 36179 ft 436 kts 324°
2026-04-16 16:26 49.71680 57.86285 36180 ft 435 kts 329°
2026-04-16 16:26 49.76977 57.81776 36184 ft 434 kts 335°
2026-04-16 16:27 49.82403 57.77813 36196 ft 434 kts 336°
2026-04-16 16:27 49.87870 57.73867 36194 ft 433 kts 336°
2026-04-16 16:28 49.93339 57.69906 36191 ft 433 kts 336°
2026-04-16 16:28 49.98752 57.65973 36194 ft 433 kts 336°
2026-04-16 16:29 50.04205 57.61999 36209 ft 433 kts 336°
2026-04-16 16:29 50.09655 57.58015 36218 ft 433 kts 336°
2026-04-16 16:30 50.15129 57.54007 36222 ft 433 kts 336°
2026-04-16 16:30 50.20560 57.50018 36223 ft 433 kts 336°
2026-04-16 16:31 50.25997 57.46014 36223 ft 433 kts 336°
2026-04-16 16:31 50.31460 57.41980 36224 ft 434 kts 336°
2026-04-16 16:32 50.36875 57.37973 36229 ft 433 kts 336°
2026-04-16 16:32 50.42304 57.33944 36231 ft 433 kts 335°
2026-04-16 16:33 50.47767 57.29881 36230 ft 433 kts 335°
2026-04-16 16:33 50.53180 57.25845 36233 ft 433 kts 335°
2026-04-16 16:34 50.58620 57.21776 36240 ft 433 kts 335°
2026-04-16 16:34 50.63851 57.17854 36236 ft 433 kts 335°
2026-04-16 16:35 50.69246 57.13800 36237 ft 433 kts 335°
2026-04-16 16:35 50.74637 57.09739 36240 ft 433 kts 335°
2026-04-16 16:36 50.80054 57.05647 36248 ft 433 kts 335°
2026-04-16 16:36 50.85500 57.01522 36242 ft 433 kts 336°
2026-04-16 16:37 50.90915 56.97414 36239 ft 433 kts 335°
2026-04-16 16:37 50.96316 56.93299 36448 ft 432 kts 335°
2026-04-16 16:38 50.98987 56.91252 36343 ft 431 kts 335°
2026-04-16 16:38 51.01625 56.88998 36294 ft 432 kts 331°
2026-04-16 16:38 51.06622 56.83730 36255 ft 434 kts 325°
2026-04-16 16:39 51.08986 56.80699 36042 ft 435 kts 321°
2026-04-16 16:39 51.11214 56.77462 36277 ft 436 kts 318°
2026-04-16 16:39 51.13312 56.74008 36037 ft 437 kts 315°
2026-04-16 16:39 51.15322 56.70321 36123 ft 437 kts 313°
2026-04-16 16:40 51.19234 56.62918 36206 ft 439 kts 313°
2026-04-16 16:40 51.23133 56.55495 36237 ft 441 kts 313°
2026-04-16 16:41 51.27063 56.47996 36251 ft 440 kts 313°
2026-04-16 16:41 51.30963 56.40536 36256 ft 440 kts 313°
2026-04-16 16:42 51.34859 56.33063 36262 ft 440 kts 312°
2026-04-16 16:42 51.38780 56.25520 36271 ft 440 kts 312°
2026-04-16 16:43 51.42672 56.18012 36279 ft 440 kts 312°
2026-04-16 16:43 51.46565 56.10480 36278 ft 441 kts 312°
2026-04-16 16:44 51.50447 56.02945 36279 ft 440 kts 312°
2026-04-16 16:44 51.54332 55.95387 36283 ft 440 kts 312°
2026-04-16 16:45 51.58204 55.87830 36279 ft 440 kts 312°
2026-04-16 16:45 51.62084 55.80235 36279 ft 440 kts 312°
2026-04-16 16:46 51.65945 55.72654 36275 ft 440 kts 312°
2026-04-16 16:46 51.69814 55.65035 36269 ft 441 kts 312°
2026-04-16 16:47 51.73703 55.57348 36277 ft 441 kts 312°
2026-04-16 16:47 51.77548 55.49729 36276 ft 441 kts 312°
2026-04-16 16:48 51.81387 55.41996 36276 ft 441 kts 310°
2026-04-16 16:48 51.85083 55.34145 36276 ft 442 kts 309°
2026-04-16 16:49 51.88813 55.26192 36278 ft 442 kts 310°
2026-04-16 16:49 51.92536 55.18257 36282 ft 443 kts 310°
2026-04-16 16:50 51.96230 55.10371 36277 ft 443 kts 309°
2026-04-16 16:50 51.99953 55.02398 36278 ft 443 kts 309°
2026-04-16 16:51 52.03656 54.94440 36276 ft 442 kts 309°
2026-04-16 16:51 52.07351 54.86476 36275 ft 442 kts 310°
2026-04-16 16:52 52.11039 54.78519 36272 ft 442 kts 309°
2026-04-16 16:52 52.14727 54.70535 36272 ft 443 kts 309°
2026-04-16 16:53 52.18422 54.62508 36273 ft 443 kts 309°
2026-04-16 16:53 52.22077 54.54542 36270 ft 443 kts 309°
2026-04-16 16:54 52.25768 54.46475 36266 ft 443 kts 309°
2026-04-16 16:54 52.29423 54.38432 36266 ft 444 kts 308°
2026-04-16 16:55 52.32754 54.29939 36272 ft 446 kts 302°
2026-04-16 16:55 52.35637 54.20966 36268 ft 447 kts 299°
2026-04-16 16:56 52.38442 54.11919 36264 ft 448 kts 299°
2026-04-16 16:56 52.41244 54.02853 36272 ft 448 kts 299°
2026-04-16 16:57 52.45433 53.89259 36289 ft 447 kts 299°
2026-04-16 16:58 52.48233 53.80130 36278 ft 447 kts 299°
2026-04-16 16:58 52.50996 53.71088 36273 ft 448 kts 299°
2026-04-16 16:59 52.53782 53.61941 36278 ft 448 kts 299°
2026-04-16 16:59 52.56540 53.52848 36282 ft 448 kts 299°
2026-04-16 17:00 52.59313 53.43671 36280 ft 448 kts 299°
2026-04-16 17:00 52.62069 53.34517 36279 ft 448 kts 298°
2026-04-16 17:01 52.64055 53.27894 36282 ft 448 kts 298°
2026-04-16 17:01 52.66785 53.18760 36287 ft 448 kts 298°
2026-04-16 17:02 52.69524 53.09571 36288 ft 449 kts 298°
2026-04-16 17:02 52.72267 53.00331 36296 ft 449 kts 298°
2026-04-16 17:03 52.74988 52.91120 36294 ft 449 kts 298°
2026-04-16 17:03 52.77724 52.81829 36293 ft 449 kts 298°
2026-04-16 17:04 52.80447 52.72540 36294 ft 449 kts 298°
2026-04-16 17:04 52.83147 52.63291 36293 ft 449 kts 298°
2026-04-16 17:05 52.85870 52.53928 36293 ft 450 kts 297°
2026-04-16 17:05 52.88569 52.44615 36288 ft 450 kts 297°